When you browse on this site, cookies collect data to enhance your experience and personalize the content and advertising you see.
Visit our Privacy Policy to learn more. By continuing to use the site, you agree to this use of cookies and data.
  • In Latvia
  • List of Countries
  • For 7 days
  • Water Temperature
  • Satellite Maps
  • Weather Map
  • Weather Widgets
  • user-avatar
    Login

    Hourly Weather Martigny

    Today, 18 July, Thursday

    Time Temperature Precipitation Wind Pressure Humidity
    00:00 +18°C° 0 mm 1 mps 701 mmHg 92%
    01:00 +18°C° 0.1 mm 1 mps 701 mmHg 91%
    02:00 +18°C° 0.1 mm 1 mps 701 mmHg 91%
    03:00 +16°C° 0.1 mm 0 mps 701 mmHg 90%
    04:00 +16°C° 0 mm 0 mps 701 mmHg 87%
    05:00 +17°C° 0 mm 0 mps 701 mmHg 84%
    06:00 +20°C° 0 mm 1 mps 702 mmHg 79%
    07:00 +22°C° 0 mm 1 mps 702 mmHg 72%
    08:00 +23°C° 0 mm 1 mps 702 mmHg 65%
    09:00 +24°C° 0 mm 2 mps 702 mmHg 57%
    10:00 +25°C° 0 mm 2 mps 702 mmHg 53%
    11:00 +26°C° 0 mm 2 mps 702 mmHg 49%
    12:00 +27°C° 0 mm 2 mps 702 mmHg 45%
    13:00 +26°C° 0 mm 2 mps 702 mmHg 47%
    14:00 +26°C° 0 mm 2 mps 702 mmHg 49%
    15:00 +26°C° 0 mm 3 mps 702 mmHg 51%
    16:00 +25°C° 0 mm 2 mps 702 mmHg 59%
    17:00 +24°C° 0 mm 2 mps 702 mmHg 66%
    18:00 +23°C° 0 mm 2 mps 702 mmHg 74%
    19:00 +21°C° 0 mm 1 mps 702 mmHg 80%
    20:00 +20°C° 0 mm 1 mps 703 mmHg 85%
    21:00 +16°C° 0 mm 0 mps 703 mmHg 91%
    22:00 +16°C° 0 mm 0 mps 703 mmHg 91%
    23:00 +15°C° 0 mm 0 mps 703 mmHg 92%

    Tomorrow, 19 July, Friday

    Time Temperature Precipitation Wind Pressure Humidity
    00:00 +15°C° 0 mm 0 mps 703 mmHg 92%
    01:00 +14°C° 0 mm 0 mps 703 mmHg 92%
    02:00 +14°C° 0 mm 0 mps 703 mmHg 92%
    03:00 +14°C° 0 mm 0 mps 703 mmHg 92%
    04:00 +15°C° 0 mm 0 mps 703 mmHg 88%
    05:00 +17°C° 0 mm 0 mps 704 mmHg 83%
    06:00 +18°C° 0 mm 0 mps 704 mmHg 79%
    07:00 +22°C° 0 mm 1 mps 704 mmHg 70%
    08:00 +24°C° 0 mm 1 mps 705 mmHg 62%
    09:00 +26°C° 0 mm 1 mps 705 mmHg 54%
    10:00 +27°C° 0 mm 1 mps 705 mmHg 52%
    11:00 +28°C° 0 mm 2 mps 705 mmHg 49%
    12:00 +29°C° 0 mm 2 mps 705 mmHg 46%
    13:00 +29°C° 0.1 mm 2 mps 704 mmHg 48%
    14:00 +28°C° 0.1 mm 2 mps 704 mmHg 50%
    15:00 +28°C° 0.1 mm 2 mps 704 mmHg 52%
    16:00 +27°C° 0.2 mm 2 mps 704 mmHg 61%
    17:00 +26°C° 0.2 mm 2 mps 704 mmHg 69%
    18:00 +25°C° 0.2 mm 1 mps 704 mmHg 78%
    19:00 +23°C° 0 mm 1 mps 704 mmHg 82%
    20:00 +21°C° 0 mm 1 mps 704 mmHg 86%
    21:00 +20°C° 0 mm 1 mps 704 mmHg 89%
    22:00 +20°C° 0 mm 1 mps 704 mmHg 89%
    23:00 +18°C° 0 mm 2 mps 704 mmHg 88%

    Day after tomorrow, 20 July, Saturday

    Time Temperature Precipitation Wind Pressure Humidity
    00:00 +18°C° 0 mm 2 mps 704 mmHg 88%
    01:00 +18°C° 0 mm 2 mps 704 mmHg 87%
    02:00 +18°C° 0 mm 2 mps 704 mmHg 87%
    03:00 +18°C° 0 mm 2 mps 704 mmHg 86%
    04:00 +19°C° 0 mm 2 mps 704 mmHg 84%
    05:00 +20°C° 0 mm 2 mps 704 mmHg 82%
    06:00 +21°C° 0 mm 2 mps 705 mmHg 79%
    07:00 +24°C° 0 mm 2 mps 705 mmHg 70%
    08:00 +26°C° 0 mm 1 mps 705 mmHg 61%
    09:00 +28°C° 0 mm 1 mps 706 mmHg 52%
    10:00 +29°C° 0.1 mm 1 mps 706 mmHg 49%
    11:00 +30°C° 0.1 mm 2 mps 706 mmHg 46%
    12:00 +30°C° 0.1 mm 2 mps 706 mmHg 43%
    13:00 +30°C° 0.1 mm 2 mps 706 mmHg 42%
    14:00 +30°C° 0.1 mm 2 mps 706 mmHg 41%
    15:00 +30°C° 0.1 mm 2 mps 706 mmHg 40%
    16:00 +29°C° 0 mm 2 mps 706 mmHg 48%
    17:00 +28°C° 0 mm 1 mps 706 mmHg 56%
    18:00 +27°C° 0 mm 1 mps 706 mmHg 65%
    19:00 +25°C° 0 mm 1 mps 706 mmHg 67%
    20:00 +23°C° 0 mm 1 mps 706 mmHg 69%
    21:00 +21°C° 0 mm 2 mps 706 mmHg 71%
    22:00 +21°C° 0 mm 2 mps 707 mmHg 72%
    23:00 +20°C° 0 mm 2 mps 707 mmHg 73%

    21 July, Sunday

    Time Temperature Precipitation Wind Pressure Humidity
    00:00 +21°C° 0 mm 1 mps 707 mmHg 74%
    01:00 +21°C° 0 mm 1 mps 707 mmHg 76%
    02:00 +20°C° 0 mm 1 mps 707 mmHg 78%
    03:00 +20°C° 0 mm 1 mps 707 mmHg 80%
    04:00 +21°C° 0 mm 1 mps 707 mmHg 77%
    05:00 +23°C° 0 mm 1 mps 708 mmHg 74%
    06:00 +24°C° 0 mm 1 mps 708 mmHg 71%
    07:00 +26°C° 0 mm 1 mps 708 mmHg 63%
    08:00 +28°C° 0 mm 1 mps 709 mmHg 55%
    09:00 +30°C° 0 mm 1 mps 709 mmHg 46%
    10:00 +31°C° 0 mm 2 mps 709 mmHg 43%
    11:00 +31°C° 0 mm 2 mps 709 mmHg 39%
    12:00 +32°C° 0 mm 2 mps 709 mmHg 36%
    13:00 +32°C° 0 mm 2 mps 709 mmHg 36%
    14:00 +32°C° 0 mm 2 mps 709 mmHg 36%
    15:00 +32°C° 0 mm 2 mps 709 mmHg 36%
    16:00 +31°C° 0 mm 2 mps 709 mmHg 47%
    17:00 +29°C° 0 mm 2 mps 708 mmHg 57%
    18:00 +28°C° 0 mm 1 mps 708 mmHg 67%
    19:00 +26°C° 0 mm 1 mps 708 mmHg 71%
    20:00 +24°C° 0 mm 1 mps 709 mmHg 74%
    21:00 +23°C° 0 mm 1 mps 709 mmHg 77%
    22:00 +22°C° 0 mm 1 mps 709 mmHg 76%
    23:00 +22°C° 0 mm 1 mps 709 mmHg 74%

    22 July, Monday

    Time Temperature Precipitation Wind Pressure Humidity
    00:00 +22°C° 0 mm 1 mps 709 mmHg 73%
    01:00 +21°C° 0 mm 1 mps 709 mmHg 73%
    02:00 +21°C° 0 mm 1 mps 709 mmHg 74%
    03:00 +21°C° 0 mm 1 mps 709 mmHg 74%
    04:00 +23°C° 0 mm 1 mps 709 mmHg 70%
    05:00 +24°C° 0 mm 1 mps 709 mmHg 67%
    06:00 +26°C° 0 mm 1 mps 710 mmHg 63%
    07:00 +28°C° 0 mm 1 mps 710 mmHg 57%
    08:00 +30°C° 0 mm 1 mps 710 mmHg 51%
    09:00 +32°C° 0 mm 1 mps 710 mmHg 46%
    10:00 +32°C° 0 mm 1 mps 710 mmHg 42%
    11:00 +33°C° 0 mm 1 mps 710 mmHg 39%
    12:00 +35°C° 0 mm 2 mps 710 mmHg 36%
    13:00 +35°C° 0 mm 2 mps 709 mmHg 37%
    14:00 +35°C° 0 mm 2 mps 709 mmHg 38%
    15:00 +34°C° 0 mm 2 mps 709 mmHg 39%
    16:00 +32°C° 0.3 mm 2 mps 709 mmHg 49%
    17:00 +30°C° 0.3 mm 1 mps 708 mmHg 59%
    18:00 +29°C° 0.3 mm 1 mps 708 mmHg 70%
    19:00 +27°C° 0.1 mm 1 mps 708 mmHg 73%
    20:00 +25°C° 0.1 mm 1 mps 708 mmHg 76%
    21:00 +24°C° 0.1 mm 1 mps 708 mmHg 79%
    22:00 +23°C° 0 mm 1 mps 708 mmHg 78%
    23:00 +23°C° 0 mm 1 mps 708 mmHg 78%

    23 July, Tuesday

    Time Temperature Precipitation Wind Pressure Humidity
    00:00 +23°C° 0 mm 1 mps 708 mmHg 77%
    01:00 +22°C° 0 mm 1 mps 708 mmHg 77%
    02:00 +22°C° 0 mm 1 mps 708 mmHg 77%
    03:00 +22°C° 0 mm 1 mps 707 mmHg 78%
    04:00 +23°C° 0 mm 1 mps 707 mmHg 75%
    05:00 +25°C° 0 mm 1 mps 708 mmHg 71%
    06:00 +26°C° 0 mm 1 mps 708 mmHg 68%
    07:00 +28°C° 0 mm 1 mps 708 mmHg 62%
    08:00 +28°C° 0 mm 0 mps 708 mmHg 55%
    09:00 +30°C° 0 mm 0 mps 708 mmHg 48%
    10:00 +33°C° 0.3 mm 1 mps 708 mmHg 46%
    11:00 +33°C° 0.3 mm 1 mps 708 mmHg 45%
    12:00 +34°C° 0.3 mm 1 mps 708 mmHg 43%
    13:00 +33°C° 0.7 mm 1 mps 707 mmHg 45%
    14:00 +33°C° 0.7 mm 1 mps 707 mmHg 48%
    15:00 +32°C° 0.7 mm 1 mps 706 mmHg 51%
    16:00 +31°C° 1 mm 1 mps 706 mmHg 58%
    17:00 +30°C° 1 mm 1 mps 706 mmHg 65%
    18:00 +27°C° 1 mm 0 mps 706 mmHg 73%
    19:00 +25°C° 0.6 mm 0 mps 706 mmHg 75%
    20:00 +26°C° 0.6 mm 1 mps 706 mmHg 78%
    21:00 +25°C° 0.6 mm 1 mps 706 mmHg 81%
    22:00 +24°C° 0.1 mm 1 mps 706 mmHg 82%
    23:00 +24°C° 0.1 mm 1 mps 706 mmHg 82%
    Show more